Preview of NWS' New Version of Forecast
This preview is not operational and should not be used for support decisions.

Regional Weather Roundup (RWR)

Issued by National Weather Service (NWS)

                            
000
ASUS44 KJAN 240110
RWRMS 

MISSISSIPPI HOURLY WEATHER ROUNDUP
NATIONAL WEATHER SERVICE JACKSON MS
800 PM CDT TUE APR 23 2019

NOTE: "FAIR: INDICATES FEW OR NO CLOUDS BELOW 12,000 FEET WITH NO
SIGNIFICANT WEATHER AND/OR OBSTRUCTIONS TO VISIBILITY.

MSZ001>002-007>008-010>013-018>021-025>028-034>036-240200-
NORTHWEST MISSISSIPPI
  
CITY           SKY/WX    TMP DP  RH WIND       PRES   REMARKS
BATESVILLE     FAIR      64  57  77 CALM      30.00S                  
CLARKSDALE     CLEAR     72  59  64 SE7       29.99S                  
CLEVELAND      FAIR      71  57  60 S12       30.00R                  
GREENWOOD      FAIR      67  59  75 CALM      30.01S                  
GREENVILLE     FAIR      67  58  72 S9        29.99F                  
OLIVE BRANCH   PTCLDY    68  57  68 S3        29.99F                  
OXFORD         FAIR      66  55  68 SE5       30.02F                  
TUNICA           N/A     68  59  73 S7        29.99F                  
WINONA         FAIR      66  56  69 CALM      30.02S                  
$$

MSZ003>006-009-014>017-022>024-029>033-037>039-240200-
NORTHEAST MISSISSIPPI
  
CITY           SKY/WX    TMP DP  RH WIND       PRES   REMARKS
ABERDEEN       FAIR      64  64 100 CALM      30.04S                  
COLUMBUS AFB   FAIR      69  56  63 SW5       30.03S                  
CORINTH        FAIR      68  50  52 S6        30.01S                  
GOLDN TRIANGLE FAIR      67  56  67 S7        30.04S                  
STARKVILLE     FAIR      64  55  72 CALM      30.05S                  
TUPELO         FAIR      70  55  59 CALM      30.02F                  
$$

MSZ040-058-240200-
CENTRAL MISSISSIPPI
  
CITY           SKY/WX    TMP DP  RH WIND       PRES   REMARKS
JACKSON INTL   MOCLDY    67  57  70 E3        30.02S                  
JACKSON HAWKNS FAIR      70  58  65 CALM      30.03S                  
MADISON        FAIR      64  59  82 CALM      30.02S                  
MERIDIAN KEY   FAIR      69  62  78 CALM      30.03F                  
MERIDIAN NAS   CLOUDY    69  60  73 CALM      30.04S                  
RAYMOND        FAIR      66  66 100 CALM      30.01F                  
VICKSBURG VKS  CLEAR     68  66  94 CALM      30.03R                  
$$

MSZ059>079-240200-
SOUTH MISSISSIPPI
  
CITY           SKY/WX    TMP DP  RH WIND       PRES   REMARKS
HATTIESBURG    FAIR      68  59  73 SE3       30.04F                  
LAUREL         CLEAR     71  59  67 S8        30.03F                  
MCCOMB         FAIR      66  56  70 SE3       30.03S                  
NATCHEZ        FAIR      67  61  81 CALM      30.04R                  
PINE BELT      FAIR      66  59  78 S3        30.04F                  
$$

MSZ080>082-240200-
COASTAL MISSISSIPPI
  
CITY           SKY/WX    TMP DP  RH WIND       PRES   REMARKS
BAY ST LOUIS   PTCLDY    68  63  83 SE7       30.04F                  
BILOXI         FAIR      69  61  76 S6        30.04F                  
PASCAGOULA     FAIR      67  60  78 CALM      30.06F                  
GULFPORT       FAIR      69  61  75 S6        30.04F                  
$$

LAZ007>009-015>016-023>026-240200-
NORTHEAST LOUISIANA
  
CITY           SKY/WX    TMP DP  RH WIND       PRES   REMARKS
BASTROP        FAIR      69  62  79 CALM      30.02S                  
TALLULAH/VBURG FAIR      69  63  81 CALM      30.02R                  
VIDALIA        FAIR      70  63  77 CALM      30.03S                  
$$